Weather History for Marianna, FL

Change the Weather History Date:

Saturday, April 28, 2012

  Actual Average Record
Temperature  
Mean Temperature 73 °F 70 °F  
Max Temperature 87 °F 83 °F 90 °F (2002)
Min Temperature 59 °F 57 °F 46 °F (2004)
Degree Days  
Heating Degree Days 0    
Month to date heating degree days  
Since 1 July heating degree days  
Cooling Degree Days 8    
Month to date cooling degree days  
Year to date cooling degree days  
Growing Degree Days 23 (Base 50)    
Moisture  
Dew Point 59 °F    
Average Humidity 65    
Maximum Humidity 93    
Minimum Humidity 35    
Precipitation  
Precipitation 0.01 in 0.05 in 0.56 in (1997)
Month to date precipitation 3.60  
Year to date precipitation 19.12  
Sea Level Pressure  
Sea Level Pressure 30.07 in    
Wind  
Wind Speed 2 mph (SSW)    
Max Wind Speed 10 mph    
Max Gust Speed -    
Visibility 10 miles    
Events      
T = Trace of Precipitation, MM = Missing Value Source: NWS Daily Summary

Daily Weather History Graph

Daily Weather History Graph

Search for Another Location

Airport:

Trip Planner

Search our weather history database for the weather conditions in past years. The results will help you decide how hot, cold, wet, or windy it might be!

Date:

Astronomy

Apr. 28, 2012 Rise Set
Actual Time 5:58 AM CDT 7:17 PM CDT
Civil Twilight 5:33 AM CDT 7:43 PM CDT
Nautical Twilight 5:03 AM CDT 8:13 PM CDT
Astronomical Twilight 4:31 AM CDT 8:45 PM CDT
Moon 11:39 AM CDT (4/28) 12:39 AM CDT (4/28)
Length of Visible Light 14h 09m
Length of Day
13h 18m
Waxing Crescent, 43% of the Moon is Illuminated
Apr 28
Waxing Crescent
Apr 29
First Quarter
May 5
Full
May 12
Last Quarter
May 20
New

Hourly Weather History & Observations

Time (CDT) Temp. Heat Index Dew Point Humidity Pressure Visibility Wind Dir Wind Speed Gust Speed Precip Events Conditions
12:53 AM 63.0 °F - 59.0 °F 87% 30.06 in 10.0 mi Calm Calm - N/A   Clear
2:53 AM 59.0 °F - 57.0 °F 93% 30.05 in 10.0 mi Calm Calm - N/A   Clear
3:53 AM 59.0 °F - 55.9 °F 90% 30.05 in 10.0 mi Calm Calm - N/A   Clear
6:53 AM 60.1 °F - 57.9 °F 93% 30.08 in 6.0 mi Calm Calm - N/A   Clear
7:05 AM 60.8 °F - 57.2 °F 88% 30.09 in 7.0 mi Calm Calm - N/A   Scattered Clouds
7:53 AM 64.9 °F - 61.0 °F 87% 30.10 in 9.0 mi Calm Calm - N/A   Clear
8:53 AM 69.1 °F - 63.0 °F 81% 30.12 in 10.0 mi Calm Calm - N/A   Clear
9:53 AM 75.0 °F - 64.0 °F 69% 30.12 in 10.0 mi Calm Calm - N/A   Clear
10:53 AM 78.1 °F - 60.1 °F 54% 30.12 in 10.0 mi SSE 5.8 mph - N/A   Clear
11:53 AM 81.0 °F 81.1 °F 57.9 °F 45% 30.10 in 10.0 mi SSW 9.2 mph - N/A   Clear
12:53 PM 82.9 °F 82.6 °F 57.9 °F 42% 30.08 in 10.0 mi Variable 3.5 mph - N/A   Clear
1:53 PM 84.9 °F 83.7 °F 55.9 °F 37% 30.06 in 10.0 mi WSW 8.1 mph - N/A   Clear
2:53 PM 86.0 °F 84.5 °F 55.0 °F 35% 30.04 in 10.0 mi SSW 8.1 mph - N/A   Clear
3:53 PM 87.1 °F 85.7 °F 55.9 °F 35% 30.02 in 10.0 mi SW 6.9 mph - N/A   Clear
4:53 PM 86.0 °F 84.5 °F 55.0 °F 35% 30.02 in 10.0 mi South 4.6 mph - N/A   Clear
5:53 PM 84.9 °F 83.7 °F 55.9 °F 37% 30.03 in 10.0 mi South 5.8 mph - N/A   Clear
6:53 PM 80.1 °F 80.9 °F 60.1 °F 50% 30.03 in 10.0 mi South 10.4 mph - N/A   Clear
7:53 PM 75.9 °F - 63.0 °F 64% 30.05 in 10.0 mi SSW 6.9 mph - N/A   Clear
8:53 PM 73.0 °F - 63.0 °F 71% 30.06 in 10.0 mi WSW 4.6 mph - N/A   Clear
9:53 PM 71.1 °F - 62.1 °F 73% 30.07 in 10.0 mi Calm Calm - N/A   Clear
10:53 PM 69.1 °F - 61.0 °F 75% 30.08 in 10.0 mi South 3.5 mph - N/A   Clear
11:53 PM 66.0 °F - 61.0 °F 84% 30.09 in 10.0 mi Calm Calm - N/A   Clear